"Pseudo-MPEC" for C2F3U32

Created 2020 Mar 26 23:07:09 UT using Find_Orb

Click here for an explanation of pseudo-MPECs

 
 Astrometry: 
     C2F3U32  C2020 03 25.39819 14 50 50.82 +13 42 08.7    ~3PAM 21.9 GVNEOCPG96
     C2F3U32  C2020 03 25.40334 14 50 50.48 +13 41 58.6    ~3PAM 21.2 GVNEOCPG96
     C2F3U32  C2020 03 25.40848 14 50 50.24 +13 41 48.9    ~3PAM 21.1 GVNEOCPG96
     C2F3U32  C2020 03 25.41363 14 50 49.92 +13 41 39.5    ~3PAM 21.6 GVNEOCPG96
     C2F3U32  C2020 03 25.50566 14 50 44.90 +13 38 44.2    ~3PCb 21.0 GVNEOCPI52
     C2F3U32  C2020 03 25.50905 14 50 44.73 +13 38 37.2    ~3PCb 22.4 GVNEOCPI52
     C2F3U32  C2020 03 25.51198 14 50 44.58 +13 38 31.9    ~3PCb 22.2 GVNEOCPI52
     C2F3U32  C2020 03 26.07436 14 50 24.64 +13 20 02.8    ~3Q2b 20.5 VVNEOCP033
     C2F3U32  C2020 03 26.07794 14 50 24.46 +13 19 55.9    ~3Q2b 20.7 VVNEOCP033
     C2F3U32  C2020 03 26.08152 14 50 24.26 +13 19 49.0    ~3Q2b 20.5 VVNEOCP033
     C2F3U32 KC2020 03 26jcViEa?7JyenIhSVbI!tsQ1!mRAstrometryCNSg7cV]JuNOtm)CH21
     C2F3U32 KC2020 03 26qKP'4S(bLZM,[t9XHlE`U!wYredacted;P%b$MkclickGD=QK+*-H21
     C2F3U32 KC2020 03 26m1AtqVo04=VYWhere1for4explanation.Edh-i;Sj_pBd!qH79BH21
     C2F3U32  C2020 03 26.91872 14 49 49.61 +12 50 54.0    ~3QMb 20.6 VVNEOCP033
     C2F3U32  C2020 03 26.92230 14 49 49.42 +12 50 46.8    ~3QMb 20.6 VVNEOCP033
     C2F3U32  C2020 03 26.92588 14 49 49.22 +12 50 39.0    ~3QMb 20.5 VVNEOCP033

Station data:
(033) Karl Schwarzschild Observatory, Tautenburg  (N50.980140 E11.711240)
   Germany. 1.3-m Schmidt.
(G96) Mt. Lemmon Survey  (N32.442754 W110.788720)  US/Arizona.  Observers T.
   A. Pruyne, B. M. Africano, E. J. Christensen, G. A. Farneth, D. C. Fuls,
   A. R. Gibbs, A. D. Grauer, H. Gröller, J. A. Johnson, R. A. Kowalski, S.
   M. Larson, G. J. Leonard, D. Rankin, R. L. Seaman, F. C. Shelly. 1.5-m
   reflector + 10K CCD.
(H21) Astronomical Research Observatory, Westfield  (N39.483057 W87.968270)
   US/Illinois. 0.76-m f/3.0 astrograph + CCD.
(I52) Steward Observatory, Mt. Lemmon Station  (N32.442547 W110.788920)
   US/Arizona.  Observers T. A. Pruyne, B. M. Africano, E. J. Christensen, G.
   A. Farneth, D. C. Fuls, A. R. Gibbs, A. D. Grauer, H. Gröller, J. A.
   Johnson, R. A. Kowalski, S. M. Larson, G. J. Leonard, D. Rankin, R. L.
   Seaman, F. C. Shelly. 1.0-m reflector + CCD.

Orbital elements:  C2F3U32
   Perihelion 2020 Jul 4.505148 +/- 0.333 TT = 12:07:24 (JD 2459035.005148)
Epoch 2020 Mar 26.0 TT = JDT 2458934.5   Earth MOID: 0.0567   AutoNEOCP
M 275.17843573 +/- 0.58             (J2000 ecliptic)
n   0.84395243 +/- 0.00314          Peri.  269.40850 +/- 0.42
a   1.10898090 +/- 0.00275          Node    23.87611 +/- 0.06
e   0.1736606 +/- 0.0029            Incl.   14.96221 +/- 0.17
P   1.17/426.56d           H 23.6   G  0.15   U  8.9  
q 0.91639455 +/- 0.00262    Q 1.30156725 +/- 0.00574
From 16 observations 2020 Mar. 25-26 (36.7 hr); mean residual 0".23
Residuals in arcseconds: 
200325 G96  .41+  .15+    200325 I52  .20+  .30+    200326 H21  .14+  .32+    
200325 G96  .41-  .29-    200326 033  .41-  .38-    200326 033  .06-  .15-    
200325 G96  .22+  .34-    200326 033  .13-  .15-    200326 033  .09+  .17+    
200325 G96  .29-  .05-    200326 033  .15-  .10+    200326 033  .11+  .10-    
200325 I52  .02-  .36+    200326 H21  .14+  .11-    
200325 I52  .13+  .08-    200326 H21  .12-  .06+    

Ephemerides (geocentric):
Date (UTC) HH   RA              Dec         delta   r     elong  mag " sig PA
---- -- -- --  -------------   -----------  ------ ------ -----  --- ---- ---
2020 03 26 23  14 49 45.733   +12 50 07.42  .15527 1.1222 140.6 21.2 .488 142
2020 03 27 00  14 49 43.746   +12 48 37.73  .15503 1.1221 140.7 21.2 .501 140
2020 03 27 01  14 49 41.745   +12 47 07.72  .15479 1.1220 140.7 21.2 .513 139
2020 03 27 02  14 49 39.731   +12 45 37.39  .15455 1.1219 140.8 21.2 .526 138
2020 03 27 03  14 49 37.702   +12 44 06.74  .15432 1.1217 140.8 21.2 .540 136
2020 03 27 04  14 49 35.658   +12 42 35.75  .15408 1.1216 140.9 21.2 .553 135
2020 03 27 05  14 49 33.601   +12 41 04.44  .15384 1.1215 140.9 21.2 .567 134
2020 03 27 06  14 49 31.530   +12 39 32.80  .15361 1.1214 140.9 21.2 .582 132
2020 03 27 07  14 49 29.444   +12 38 00.83  .15337 1.1213 141.0 21.2 .597 131
2020 03 27 08  14 49 27.344   +12 36 28.53  .15313 1.1212 141.0 21.2 .612 130
2020 03 27 09  14 49 25.230   +12 34 55.89  .15290 1.1210 141.1 21.2 .628 129
2020 03 27 10  14 49 23.101   +12 33 22.92  .15266 1.1209 141.1 21.2 .644 127
2020 03 27 11  14 49 20.958   +12 31 49.62  .15243 1.1208 141.2 21.2 .660 126
2020 03 27 12  14 49 18.800   +12 30 15.97  .15219 1.1207 141.2 21.2 .677 125
2020 03 27 13  14 49 16.628   +12 28 41.99  .15195 1.1206 141.3 21.2 .695 124
2020 03 27 14  14 49 14.441   +12 27 07.66  .15172 1.1205 141.3 21.2 .712 123
2020 03 27 15  14 49 12.240   +12 25 33.00  .15148 1.1203 141.3 21.2 .731 122
2020 03 27 16  14 49 10.024   +12 23 57.99  .15125 1.1202 141.4 21.2 .749 121
2020 03 27 17  14 49 07.794   +12 22 22.63  .15101 1.1201 141.4 21.2 .768 120
2020 03 27 18  14 49 05.549   +12 20 46.93  .15077 1.1200 141.5 21.2 .788 119
2020 03 27 19  14 49 03.289   +12 19 10.88  .15054 1.1199 141.5 21.2 .808 118
2020 03 27 20  14 49 01.014   +12 17 34.48  .15030 1.1198 141.6 21.1 .828 117
2020 03 27 21  14 48 58.724   +12 15 57.73  .15007 1.1196 141.6 21.1 .849 116
2020 03 27 22  14 48 56.420   +12 14 20.63  .14983 1.1195 141.7 21.1 .870 115
2020 03 27 23  14 48 54.100   +12 12 43.17  .14960 1.1194 141.7 21.1 .891 114
2020 03 28 00  14 48 51.766   +12 11 05.36  .14936 1.1193 141.8 21.1 .913 113
2020 03 28 01  14 48 49.416   +12 09 27.19  .14913 1.1192 141.8 21.1 .936 112
2020 03 28 02  14 48 47.052   +12 07 48.66  .14889 1.1191 141.9 21.1 .959 112
2020 03 28 03  14 48 44.672   +12 06 09.77  .14866 1.1189 141.9 21.1 .982 111
2020 03 28 04  14 48 42.277   +12 04 30.52  .14843 1.1188 142.0 21.1 1.01 110
2020 03 28 05  14 48 39.867   +12 02 50.91  .14819 1.1187 142.0 21.1 1.03 109
2020 03 28 06  14 48 37.442   +12 01 10.93  .14796 1.1186 142.0 21.1 1.06 108
2020 03 28 07  14 48 35.001   +11 59 30.59  .14772 1.1185 142.1 21.1 1.08 108
2020 03 28 08  14 48 32.545   +11 57 49.88  .14749 1.1184 142.1 21.1 1.11 107
2020 03 28 09  14 48 30.074   +11 56 08.80  .14726 1.1182 142.2 21.1 1.13 106
2020 03 28 10  14 48 27.587   +11 54 27.34  .14702 1.1181 142.2 21.1 1.16 106
2020 03 28 11  14 48 25.085   +11 52 45.52  .14679 1.1180 142.3 21.1 1.19 105
2020 03 28 12  14 48 22.567   +11 51 03.32  .14655 1.1179 142.3 21.1 1.21 104
2020 03 28 13  14 48 20.034   +11 49 20.74  .14632 1.1178 142.4 21.1 1.24 103
2020 03 28 14  14 48 17.485   +11 47 37.79  .14609 1.1177 142.4 21.1 1.27 103
2020 03 28 15  14 48 14.920   +11 45 54.46  .14585 1.1175 142.5 21.1 1.30 102
2020 03 28 16  14 48 12.340   +11 44 10.75  .14562 1.1174 142.5 21.1 1.33 102
2020 03 28 17  14 48 09.744   +11 42 26.65  .14539 1.1173 142.6 21.0 1.36 101
2020 03 28 18  14 48 07.132   +11 40 42.17  .14515 1.1172 142.6 21.0 1.39 100
2020 03 28 19  14 48 04.504   +11 38 57.31  .14492 1.1171 142.7 21.0 1.42 100
2020 03 28 20  14 48 01.860   +11 37 12.06  .14469 1.1170 142.7 21.0 1.45  99
2020 03 28 21  14 47 59.200   +11 35 26.42  .14446 1.1168 142.8 21.0 1.48  99
2020 03 28 22  14 47 56.525   +11 33 40.38  .14422 1.1167 142.8 21.0 1.51  98